This is the latest recevied weather packets stored in our database for station/object KD8NVS-13. If no packets are shown the sender has not sent any weather packets the latest 10 day(s).
| Time | Temp. | Humidity | Pressure | Rain* | Wind** | Luminosity | Snow |
|---|---|---|---|---|---|---|---|
| 1778157760 | 8.89° C | 72% | 1004.9 hPa | 0 mm | - | 261 W/m² | - |
| 1778157459 | 8.89° C | 74% | 1004.5 hPa | 0 mm | - | 243 W/m² | - |
| 1778157156 | 8.33° C | 75% | 1004.5 hPa | 0 mm | - | 224 W/m² | - |
| 1778156851 | 8.89° C | 76% | 1004.9 hPa | 0 mm | - | 208 W/m² | - |
| 1778156547 | 8.33° C | 76% | 1004.5 hPa | 0 mm | - | 191 W/m² | - |
| 1778156243 | 8.33° C | 77% | 1004.5 hPa | 0 mm | - | 179 W/m² | - |
| 1778155939 | 7.78° C | 79% | 1004.9 hPa | 0 mm | - | 164 W/m² | - |
| 1778155635 | 8.33° C | 80% | 1004.5 hPa | 0 mm | - | 147 W/m² | - |
| 1778155333 | 8.33° C | 80% | 1004.5 hPa | 0 mm | - | 133 W/m² | - |
| 1778155028 | 7.78° C | 83% | 1004.9 hPa | 0 mm | - | 118 W/m² | - |
| 1778154724 | 7.22° C | 84% | 1004.9 hPa | 0 mm | - | 102 W/m² | - |
| 1778154420 | 7.22° C | 85% | 1004.5 hPa | 0 mm | - | 92 W/m² | - |
| 1778154118 | 7.22° C | 86% | 1004.5 hPa | 0 mm | - | 65 W/m² | - |
| 1778153815 | 6.67° C | 90% | 1004.5 hPa | 0 mm | - | 59 W/m² | - |
| 1778153512 | 6.67° C | 95% | 1004.5 hPa | 0 mm | - | 56 W/m² | - |
| 1778153210 | 6.11° C | 98% | 1004.5 hPa | 0 mm | - | 52 W/m² | - |
| 1778152906 | 5.56° C | 98% | 1004.5 hPa | 0 mm | - | 48 W/m² | - |
| 1778152603 | 5° C | 98% | 1004.2 hPa | 0 mm | - | 44 W/m² | - |
| 1778152300 | 4.44° C | 98% | 1004.2 hPa | 0 mm | - | 40 W/m² | - |
| 1778151996 | 6.11° C | 99% | 1003.8 hPa | 0 mm | - | 37 W/m² | - |
| 1778151693 | 5.56° C | 98% | 1003.8 hPa | 0 mm | - | 32 W/m² | - |
| 1778151390 | 4.44° C | 98% | 1004.2 hPa | 0 mm | - | 27 W/m² | - |
| 1778151086 | 3.33° C | 98% | 1003.8 hPa | 0 mm | - | 21 W/m² | - |
| 1778150783 | 3.33° C | 98% | 1004.2 hPa | 0 mm | - | 16 W/m² | - |
| 1778150480 | 3.33° C | 98% | 1004.2 hPa | 0 mm | - | 10 W/m² | - |
* Rain latest hour (hover to see other rain measurements)
** Current wind speed in m/s (hover to see current wind gust speed)